Tracking 28794 objects as of 19-Apr-2024
HD Live streaming from Space Station
objects crossing your sky now

NAVSTAR 46 (USA 145)

Track NAVSTAR 46 (USA 145) now!
NAVSTAR 46 (USA 145) is classified as:


NORAD ID: 25933
Int'l Code: 1999-055A
Perigee: 19,858.9 km
Apogee: 20,521.4 km
Inclination: 52.1 °
Period: 718.0 minutes
Semi major axis: 26561 km
RCS: 3.9811 m2 (large)
Launch date: October 7, 1999
Source: United States (US)
Launch site: AIR FORCE EASTERN TEST RANGE (AFETR)

NAVSTAR 46 (also known as USA 145, and GPS 2R-3) was an American navigational spacecraft of the GPS fleet launched by a Delta 2 rocket from Cape Canaveral at 13:51 UT. This was the third of the 21 redesigned 2R series that may eventually replace the existing GPS fleet.
Your satellite tracking list
Your tracking list is empty




NASA's NSSDC Master Catalog

Two Line Element Set (TLE):
1 25933U 99055A   24110.35638852 -.00000076  00000-0  00000-0 0  9992
2 25933  52.1101 329.7549 0124702 149.1883  72.3524  2.00554554179755
Source of the keplerian elements: AFSPC